Lapse_Rate
5.2 3.1 2.2 2.4 3.1 1.6 1.2 1.3 2.3 2.9 3.8 3.4 3.0 2.8 3.5 1.6 1.3 2.8 4.0 3.6 3.7 3.8 3.6 3.8 3.2 3.5 4.7 4.5 3.7 3.9 3.9 3.2 2.6 3.3 2.9 2.3 2.1 2.5 2.2 2.9 2.9 2.6 2.3
3.8 3.8 3.6 2.6 0.7 0.3 0.7 1.2 1.2 1.3 1.6 2.1 2.8 3.2 3.0 2.8 4.0 3.0 3.2 4.2 4.0 3.4 4.2 3.1 2.7 2.7 3.1 3.4 3.3 4.2 3.6 2.9 2.2 3.1 2.6 4.2 3.3 2.6 2.4 1.8 2.5 2.1 2.9
4.0 3.7 3.1 2.2 1.7 1.1 0.7 1.5 1.8 1.8 1.8 1.9 1.9 1.9 1.7 2.4 2.6 2.6 2.7 3.2 4.2 3.8 3.1 4.1 3.7 2.9 3.0 2.9 2.9 4.0 4.2 3.8 1.9 2.0 2.9 2.9 3.6 1.6 0.7 2.1 1.9 2.4 1.7
4.1 4.5 4.5 3.5 3.0 2.8 2.7 2.7 2.6 2.5 3.5 2.5 2.2 2.2 1.9 2.5 2.7 3.6 4.2 4.0 4.1 3.8 4.1 3.3 3.4 3.2 2.9 3.9 4.8 4.1 4.6 4.0 3.9 2.5 3.9 3.0 2.1 2.3 2.7 -0.1 0.0 1.2 2.3
4.0 4.6 5.0 4.9 4.7 4.1 3.5 3.0 3.4 3.8 3.3 3.6 3.2 2.0 2.1 1.7 1.8 1.8 2.9 3.6 3.8 4.2 4.2 4.2 3.3 3.1 3.0 3.8 4.1 3.9 4.4 4.3 5.0 3.9 3.4 3.8 2.6 2.6 2.4 1.9 0.3 0.7 1.3
4.3 4.7 5.3 5.0 4.8 3.9 3.3 3.2 3.0 3.6 3.5 3.0 2.8 3.2 2.8 2.3 2.0 1.8 1.6 1.8 2.7 3.5 3.7 4.0 3.6 3.7 4.7 4.6 4.0 4.3 4.1 4.5 4.9 4.8 4.7 4.4 4.9 4.5 2.9 2.5 1.4 1.7 1.0
4.2 4.4 4.9 4.8 4.7 3.8 3.3 4.1 3.1 3.6 3.2 3.3 3.5 3.5 3.2 2.8 2.8 2.0 1.5 1.5 2.2 2.9 3.0 3.7 4.0 3.8 4.1 4.3 4.9 5.4 5.4 4.9 4.8 5.2 4.3 4.3 4.4 4.6 4.0 3.7 3.4 2.7 0.8
4.2 4.6 4.9 4.4 4.3 4.0 3.5 3.5 3.5 3.5 3.4 3.2 3.3 3.0 2.9 2.9 2.9 2.6 2.0 1.5 1.4 1.6 1.3 1.5 1.8 3.1 3.4 3.8 4.7 5.3 5.3 5.6 5.3 4.9 4.8 4.1 4.0 3.8 3.5 4.4 4.5 2.4 0.9
4.4 4.9 4.6 4.3 4.1 3.9 4.2 4.1 4.2 3.7 3.3 3.1 3.0 2.8 2.6 2.4 2.0 1.7 1.6 1.4 1.2 2.7 1.0 0.9 1.1 1.7 2.6 3.4 4.1 5.3 5.5 5.7 5.4 5.3 4.7 4.7 3.6 2.9 3.0 3.0 3.9 4.8 5.0
4.4 4.6 4.3 4.4 4.2 4.4 4.4 4.3 4.2 3.5 3.2 3.0 2.2 1.9 1.4 1.3 0.9 0.7 0.2 0.4 0.6 0.9 0.7 0.5 0.4 0.7 1.5 1.9 2.2 3.6 5.0 5.1 4.8 4.0 3.8 2.2 0.8 0.3 -0.1 0.1 0.6 1.2 3.1
4.0 4.0 4.0 4.7 4.5 4.2 4.0 3.9 3.6 3.3 2.9 2.4 1.5 0.8 0.5 0.2 -0.0 -0.3 -0.6 -0.7 -0.3 0.1 0.4 0.3 0.3 0.0 0.1 0.2 1.3 1.7 1.8 3.2 3.6 2.5 1.9 0.4 -0.3 -0.4 -0.7 -0.6 -0.2 0.3 2.0
3.6 3.7 4.2 4.7 4.5 3.9 3.7 3.4 3.3 3.1 2.4 1.8 0.8 0.3 -0.1 -0.4 -0.8 -0.8 -0.6 -0.4 -0.2 0.2 0.6 0.7 0.5 0.1 0.1 -0.1 0.2 0.6 1.8 2.8 2.1 1.6 1.1 0.3 0.6 -0.7 -0.6 -0.5 -0.2 0.3 0.5
3.9 4.1 4.6 4.8 4.1 3.7 3.6 3.3 3.2 2.8 2.2 1.5 0.7 0.2 -0.1 -0.5 -1.0 -0.9 -0.4 0.4 1.5 2.1 3.2 3.2 2.7 2.6 2.5 2.9 2.5 1.9 1.1 1.1 0.7 0.3 0.2 0.2 -0.2 -0.1 0.1 -0.1 -0.3 -0.1 0.5
4.7 4.2 4.7 4.7 4.3 4.1 4.1 3.6 2.9 2.7 2.3 1.7 1.1 0.4 -0.2 -0.3 -0.2 -0.3 0.0 0.2 1.0 1.5 1.5 1.5 1.8 1.6 1.3 0.8 0.4 0.4 0.5 0.3 -0.1 0.1 0.0 0.5 -0.1 0.7 0.7 1.3 1.2 1.1 1.4
4.8 4.4 4.4 4.7 4.5 3.9 3.7 3.4 3.0 3.1 2.7 2.0 1.4 0.4 0.2 1.4 1.3 1.3 0.9 0.1 0.4 1.2 1.0 1.6 1.1 1.1 1.2 0.9 -0.0 0.5 0.5 0.2 0.1 0.4 1.1 1.9 3.1 4.5 4.1 3.1 2.3 2.3 2.3
5.2 4.6 4.9 5.2 4.4 3.8 4.0 3.7 3.3 3.0 2.8 2.2 1.4 1.0 1.4 1.4 1.3 1.3 1.1 1.5 1.6 1.6 1.4 1.5 1.8 1.9 2.8 3.3 2.5 1.1 0.9 1.0 1.0 1.1 1.1 1.5 1.7 2.7 4.1 4.2 4.1 3.7 3.2
4.6 4.6 4.9 4.6 3.9 4.1 3.8 3.2 2.9 2.7 3.2 3.1 2.1 1.7 1.8 1.5 1.4 1.7 2.2 2.3 1.9 1.7 1.2 1.4 1.7 2.2 3.3 3.8 3.3 2.5 1.2 1.1 1.2 1.5 1.7 1.9 1.9 1.9 1.9 2.7 2.8 4.7 5.5
4.7 4.8 4.4 4.2 4.4 3.8 3.3 3.0 2.9 3.4 2.8 2.3 2.1 2.1 1.8 1.6 2.1 2.4 2.2 2.0 1.6 1.2 1.4 1.3 1.6 2.3 3.6 4.5 4.0 2.7 -0.5 -1.0 -0.2 0.2 0.8 1.1 1.4 2.1 3.1 3.2 3.0 3.3 3.3
3.5 3.6 3.5 3.8 3.6 3.7 3.1 2.8 3.1 3.3 2.9 2.4 2.1 2.1 2.3 2.0 2.9 2.6 2.2 1.5 1.2 0.8 0.6 0.4 -0.4 -0.0 1.1 4.2 3.3 1.2 -0.1 -0.1 0.2 0.9 1.5 1.7 2.1 5.5 6.0 2.9 3.4 3.9 3.9
3.1 2.7 3.2 3.8 3.5 3.5 3.2 3.2 4.1 3.9 3.2 2.9 2.4 2.3 2.1 2.3 2.8 2.2 2.4 1.8 1.4 0.7 -1.2 -1.7 -0.9 3.0 0.7 4.5 4.2 1.5 0.3 0.4 1.4 1.2 2.1 5.5 4.9 6.1 6.3 3.4 3.3 3.8 4.1
2.8 2.4 2.6 3.1 3.1 2.8 2.5 3.3 4.3 4.2 3.7 2.8 2.3 2.2 2.4 2.7 2.7 2.6 2.2 -0.6 -2.5 -2.8 -2.5 -0.0 0.1 0.4 1.6 2.4 4.5 4.4 1.6 1.7 2.1 2.4 2.2 2.9 5.8 5.9 6.1 6.3 3.5 4.4 4.7
2.8 2.4 1.7 2.0 2.0 1.7 1.7 3.4 4.1 3.9 3.2 2.1 1.9 2.3 2.6 3.2 3.1 1.8 0.3 0.3 0.8 0.9 0.9 0.8 0.4 0.2 0.9 3.9 4.2 4.7 4.8 3.9 2.9 3.1 2.6 3.0 6.4 6.4 6.5 5.5 6.6 6.8 5.8
2.6 2.3 1.2 0.8 0.9 1.6 2.2 2.2 2.4 2.9 2.7 3.4 3.2 3.1 2.8 1.9 1.4 1.0 1.1 1.0 0.9 1.1 1.2 0.9 0.6 0.8 1.2 0.8 4.6 5.3 5.8 5.3 3.5 3.7 4.9 5.8 6.1 5.9 4.5 5.7 6.7 6.2 3.7
2.2 2.0 1.7 1.9 1.4 1.6 1.3 1.8 2.1 2.8 4.0 4.8 3.0 1.8 1.2 1.3 1.6 1.5 1.1 1.1 1.1 1.3 1.4 1.2 1.1 0.7 0.8 0.7 1.0 2.1 1.6 4.2 3.9 4.3 2.6 4.9 5.9 6.2 5.7 5.2 4.8 4.3 3.9
2.2 2.2 1.7 1.5 1.6 1.6 1.2 1.6 2.7 3.2 3.9 2.7 1.7 1.5 1.7 1.2 0.5 0.9 1.1 0.6 0.4 1.1 0.5 0.4 0.8 0.9 0.9 1.8 3.7 3.8 3.6 3.0 4.3 4.0 3.0 3.2 3.6 3.8 4.2 4.3 4.2 4.0 4.1
1.7 1.8 2.6 1.7 2.3 2.0 1.7 2.3 3.2 3.2 1.9 1.4 0.8 0.5 0.7 0.6 0.1 -0.0 0.4 2.9 2.7 3.1 3.1 2.8 1.4 1.5 3.2 4.2 4.5 4.9 5.3 5.5 5.6 3.5 3.1 2.5 2.2 2.6 3.7 3.8 3.7 3.4 3.2
Wind_Speed
4 5 7 6 6 8 8 7 6 4 2 1 3 2 5 4 4 6 12 9 7 10 10 6 6 8 7 8 7 5 6 5 4 4 2 2 4 6 5 8 9 12 17
5 5 6 7 8 6 6 7 6 6 5 2 0 1 3 4 7 6 8 11 10 8 5 5 6 6 4 6 6 7 3 3 5 4 2 2 3 4 6 5 6 8 13
7 5 7 7 7 7 7 6 6 5 3 3 3 2 2 1 1 2 3 6 14 14 11 8 5 5 6 6 6 6 8 8 4 6 4 2 6 1 3 10 7 7 6
6 6 6 6 6 4 5 6 6 6 3 4 3 2 1 1 2 2 3 5 12 11 12 10 10 6 4 7 9 8 8 6 7 3 7 1 3 4 2 3 4 5 7
7 7 6 6 5 5 4 5 6 5 5 4 2 1 2 2 2 3 4 4 5 9 12 11 7 6 4 5 6 5 8 8 10 8 4 9 3 2 2 4 4 3 3
7 6 6 7 4 5 6 6 7 5 6 6 5 4 3 4 3 4 4 4 3 3 5 6 5 5 6 7 5 5 5 6 8 8 10 8 8 11 4 4 3 3 3
7 6 6 5 4 5 5 5 6 6 6 7 6 6 6 4 4 5 4 5 4 3 6 6 4 4 6 6 5 6 6 6 8 10 8 9 9 8 7 6 4 3 2
6 7 6 5 4 5 5 5 6 6 7 7 7 6 7 4 3 4 4 4 4 3 5 6 7 6 4 5 5 3 4 6 6 9 9 7 9 7 6 7 8 3 3
7 7 6 5 5 4 4 4 5 6 7 7 6 7 7 8 7 7 5 4 4 5 6 6 6 7 6 4 5 3 3 5 6 7 6 7 6 4 5 5 5 9 7
7 5 5 5 4 4 4 6 6 6 6 7 6 6 7 7 6 6 7 7 7 7 6 7 6 6 7 6 5 4 4 4 3 3 4 2 2 2 2 2 1 2 2
7 6 5 3 5 5 6 6 6 6 6 6 6 7 7 7 7 6 6 6 6 7 7 7 6 6 6 7 6 6 6 5 4 4 3 4 3 3 2 2 2 2 2
7 6 5 4 5 6 6 6 6 6 5 5 6 6 6 6 7 6 6 6 6 5 6 6 7 8 8 8 7 7 7 7 6 5 4 4 3 3 3 2 2 2 2
7 5 4 4 6 6 6 6 5 5 5 6 6 6 6 6 6 6 5 6 5 5 6 7 8 7 7 6 7 7 7 7 7 7 6 5 4 3 2 3 3 2 2
7 5 4 4 5 5 6 5 5 5 4 5 6 5 5 5 5 5 6 7 6 7 7 7 7 6 7 7 7 7 8 8 8 8 8 7 7 5 5 5 4 4 4
6 6 5 4 4 6 5 5 5 4 4 5 5 5 4 6 7 7 6 8 8 7 7 7 7 6 7 6 7 8 9 9 9 9 9 8 9 11 9 4 4 4 3
6 6 6 6 6 5 5 5 5 5 5 5 5 5 6 7 7 7 8 8 8 8 9 10 9 9 7 15 15 10 8 8 8 7 8 8 12 11 11 9 7 3 2
6 6 6 6 6 5 6 6 5 5 5 5 7 6 6 6 6 6 6 6 6 7 9 8 8 8 9 15 15 14 7 7 7 6 5 5 5 8 5 6 6 6 5
6 6 6 6 5 5 6 6 5 5 5 6 7 6 6 6 5 5 5 5 6 7 6 7 7 6 7 14 14 13 5 5 5 4 3 3 3 3 3 2 4 4 4
5 5 5 4 5 6 6 6 6 5 6 6 6 6 6 5 4 5 5 4 7 5 5 3 4 4 4 10 10 7 4 4 4 4 3 4 4 5 8 5 4 3 4
6 6 6 5 6 5 6 6 5 5 6 6 6 5 6 5 4 5 4 3 5 4 2 2 2 8 6 10 11 6 2 3 3 3 5 8 5 7 7 4 3 3 2
6 6 6 5 6 6 7 6 5 4 5 6 6 5 4 5 5 4 2 1 2 2 2 4 3 4 5 6 9 9 3 3 3 3 2 3 6 6 6 5 1 3 2
6 6 6 6 5 6 6 6 4 4 5 6 6 5 5 5 5 5 3 2 2 3 2 3 2 2 3 4 6 8 6 6 3 1 1 3 6 7 6 3 3 4 4
5 5 6 7 5 5 7 7 5 5 6 6 6 6 5 5 5 5 4 2 3 3 3 2 1 1 1 3 7 8 4 5 2 1 5 7 8 7 5 5 6 3 1
6 5 8 8 6 5 7 6 7 7 6 7 6 5 5 5 4 3 2 3 2 2 2 2 1 1 0 1 2 2 3 5 3 4 4 6 6 6 5 3 3 1 1
7 7 8 8 8 8 7 8 8 7 6 5 5 5 4 5 4 3 3 3 2 3 3 2 2 2 1 2 1 2 1 2 4 4 3 3 2 3 3 3 2 2 1
6 7 8 8 9 10 9 9 9 8 6 5 5 5 4 4 4 4 2 4 4 4 5 5 4 1 2 1 2 5 6 7 9 2 2 2 2 2 3 3 3 2 3
Wind_Direction
260 52 82 85 78 46 33 8 0 18 142 179 205 186 215 225 252 237 238 232 242 252 224 214 214 202 206 212 204 202 197 219 162 116 345 326 263 244 223 210 205 206 200
86 74 74 64 63 66 40 25 16 7 12 21 66 213 194 222 226 226 236 240 242 235 255 239 227 208 211 209 202 197 209 234 193 164 111 230 314 254 233 220 214 209 194
124 102 79 78 59 44 29 17 1 356 348 359 338 20 15 51 123 222 229 232 232 239 215 225 239 226 205 208 206 209 205 229 255 236 162 147 225 203 219 227 218 209 198
120 110 100 87 83 54 24 5 2 347 350 20 35 20 183 253 264 255 257 252 234 234 232 219 215 204 219 242 235 217 219 205 214 248 250 264 145 195 281 284 236 214 209
128 113 97 105 88 59 27 352 346 353 340 348 31 29 311 227 268 296 319 301 268 235 223 225 216 210 225 231 227 228 220 217 227 219 205 235 236 230 179 258 279 251 206
121 112 90 97 88 50 34 14 9 355 3 8 355 357 319 306 322 323 325 319 318 303 280 242 212 218 222 209 229 226 222 228 234 232 228 220 218 225 228 231 230 260 270
127 121 110 94 78 67 41 17 19 10 11 23 20 12 12 356 359 5 358 1 352 2 4 354 277 237 220 225 227 224 243 240 235 231 225 233 239 235 206 203 217 210 205
147 147 146 128 96 86 59 34 27 32 28 27 23 29 36 42 42 37 34 33 25 8 8 9 7 342 274 245 227 209 244 259 261 251 227 224 234 222 222 213 209 204 217
159 153 134 127 108 101 72 59 48 42 31 23 21 32 32 36 31 29 30 23 11 4 10 18 10 359 0 331 303 242 257 257 267 255 232 223 218 209 229 259 240 210 219
155 140 129 131 121 124 92 66 64 59 35 28 32 39 37 38 32 36 29 16 6 8 11 17 23 13 7 6 1 342 344 316 307 326 298 44 63 41 53 93 92 76 336
151 139 132 129 122 102 86 72 60 50 38 38 39 40 33 31 30 32 21 13 12 14 20 10 20 23 18 9 6 7 1 336 14 18 58 83 89 92 90 77 105 122 122
152 142 137 127 121 105 86 77 63 57 52 55 54 44 37 30 31 22 14 11 23 20 23 18 31 25 28 29 33 29 16 18 20 23 45 68 60 73 99 118 114 130 89
139 129 111 129 130 113 96 85 69 57 65 65 59 47 38 35 27 12 12 12 18 38 39 43 44 36 34 34 41 55 54 46 39 36 35 23 71 62 48 61 84 60 61
152 143 120 128 141 132 115 106 82 64 75 76 68 63 48 45 30 21 18 31 18 43 46 46 47 48 48 46 43 55 63 61 55 54 53 42 49 53 50 42 44 68 58
158 157 154 147 150 121 116 108 96 73 77 84 78 77 64 45 39 39 34 36 28 33 53 58 54 45 56 56 59 60 60 63 63 51 54 53 70 70 63 56 39 57 60
167 163 163 152 136 134 123 112 103 91 93 90 83 67 64 56 48 49 48 49 46 45 50 49 53 55 60 67 72 70 70 69 63 60 52 52 47 48 75 86 87 99 107
170 169 171 151 146 144 136 127 120 108 88 96 90 75 74 73 62 61 64 59 56 55 54 47 49 51 69 77 78 74 66 63 59 58 51 58 56 60 57 38 36 18 34
158 162 152 139 137 128 120 115 105 95 93 85 90 95 92 82 72 74 64 64 70 61 59 47 41 56 70 73 79 82 66 69 77 79 74 75 55 23 30 32 6 1 345
132 142 138 141 131 130 128 116 106 110 105 106 104 100 106 97 93 83 78 78 86 77 77 73 44 49 42 79 89 90 78 76 70 59 69 68 32 20 46 42 14 14 23
141 144 147 138 131 134 133 121 114 122 126 126 116 106 106 109 104 98 106 97 101 101 85 25 12 66 34 56 70 73 77 66 51 35 28 33 45 27 9 59 30 15 322
131 137 139 148 157 137 122 112 112 133 131 124 115 106 101 121 122 131 146 126 75 81 50 86 64 64 62 37 55 60 48 53 54 46 22 352 12 352 344 350 14 247 260
152 148 140 136 131 128 117 121 158 151 137 123 121 131 144 144 152 160 179 169 136 119 128 110 62 27 12 63 45 42 50 58 72 56 270 288 327 338 338 356 314 327 15
173 157 145 135 138 144 138 157 164 158 144 146 157 169 179 171 179 177 188 195 193 176 182 169 152 280 312 1 25 26 24 3 90 320 322 322 325 331 343 320 322 33 41
180 158 152 158 159 157 155 161 170 174 170 174 175 182 176 183 187 148 123 131 122 143 160 161 172 261 95 32 19 32 13 4 353 339 329 320 333 337 335 344 346 323 231
177 171 174 169 172 175 170 168 183 185 192 178 178 176 182 157 134 110 145 137 177 165 170 191 180 169 226 252 299 352 328 302 313 354 344 342 350 346 345 346 347 346 346
177 179 182 168 181 183 180 183 188 188 181 190 179 179 177 179 165 149 92 126 146 119 126 147 164 248 234 280 315 326 326 322 321 17 328 323 320 307 323 325 319 320 334